OK6FS-6 Weather Reports


time (UTC)temp
C
wind
direction
speed
KPH
gust
KPH
rain 1hr
cm
rain 24hr
cm
rain mn
cm
humidity
%
barometer
mb
20260503235432 15 29 1.6 3.2 0.00 0.00 0.00 47 1017.3
20260503234239 15 38 3.2 3.2 0.00 0.00 0.00 46 1017.3
20260503233036 15 51 3.2 4.8 0.00 0.00 0.00 46 1017.2
20260503231833 15 44 4.8 6.4 0.00 0.00 0.00 46 1017.2
20260503230631 15 51 6.4 8.0 0.00 0.00 0.00 46 1017.4
20260503225438 15 51 4.8 8.0 0.00 0.00 0.00 45 1017.4
20260503224235 16 43 4.8 4.8 0.00 0.00 0.00 45 1017.4
20260503223049 16 31 3.2 4.8 0.00 0.00 0.00 45 1017.5
20260503221834 16 37 1.6 3.2 0.00 0.00 0.00 44 1017.5
20260503220631 16 29 1.6 3.2 0.00 0.00 0.00 44 1017.7
20260503215458 16 28 0.0 1.6 0.00 0.00 0.00 44 1017.7
20260503214225 16 7 1.6 3.2 0.00 0.00 0.00 44 1017.8
20260503213033 16 41 1.6 4.8 0.00 0.00 0.00 44 1017.7
20260503211920 16 32 1.6 3.2 0.00 0.00 0.00 43 1017.7
20260503210627 16 40 3.2 4.8 0.00 0.00 0.00 43 1017.8
20260503205434 17 42 3.2 6.4 0.00 0.00 0.00 43 1017.7
20260503204251 17 52 1.6 3.2 0.00 0.00 0.00 43 1017.8
20260503203029 17 20 3.2 4.8 0.00 0.00 0.00 43 1017.9
20260503201856 17 46 1.6 4.8 0.00 0.00 0.00 43 1018.0
20260503200633 18 41 3.2 6.4 0.00 0.00 0.00 43 1017.9
20260503195501 18 22 3.2 4.8 0.00 0.00 0.00 43 1017.9
20260503194228 18 44 1.6 4.8 0.00 0.00 0.00 43 1018.0
20260503193035 18 41 3.2 4.8 0.00 0.00 0.00 43 1018.1
20260503191833 18 39 3.2 6.4 0.00 0.00 0.00 43 1018.0
20260503190649 19 49 4.8 6.4 0.00 0.00 0.00 43 1017.9
20260503185436 20 42 3.2 4.8 0.00 0.00 0.00 42 1017.9
20260503184244 20 41 3.2 4.8 0.00 0.00 0.00 41 1017.7
20260503183041 21 37 1.6 4.8 0.00 0.00 0.00 40 1017.6
20260503181828 21 32 1.6 3.2 0.00 0.00 0.00 40 1017.5
20260503180625 21 59 1.6 6.4 0.00 0.00 0.00 39 1017.5
20260503175432 21 111 3.2 6.4 0.00 0.00 0.00 39 1017.5
20260503174229 22 76 3.2 8.0 0.00 0.00 0.00 38 1017.4
20260503173026 22 43 3.2 6.4 0.00 0.00 0.00 38 1017.3
20260503171834 22 80 8.0 11.3 0.00 0.00 0.00 37 1017.3
20260503170632 23 45 6.4 9.7 0.00 0.00 0.00 37 1017.3
20260503150629 25 82 9.7 12.9 0.00 0.00 0.00 35 1017.8
20260503130633 25 87 8.0 11.3 0.00 0.00 0.00 35 1019.2
20260503110629 23 295 8.0 11.3 0.00 0.00 0.00 34 1020.8
20260503080644 22 167 8.0 16.1 0.00 0.00 0.00 31 1022.3
20260503071830 22 54 4.8 9.7 0.00 0.00 0.00 33 1022.2
20260503070638 21 178 4.8 9.7 0.00 0.00 0.00 35 1022.2
20260503054237 12 34 1.6 1.6 0.00 0.00 0.00 58 1022.0
20260503053033 12 44 1.6 3.2 0.00 0.00 0.00 59 1021.9
20260503051821 11 16 0.0 3.2 0.00 0.00 0.00 62 1022.0
20260503050656 10 12 0.0 1.6 0.00 0.00 0.00 67 1022.0
20260503045423 9 15 0.0 1.6 0.00 0.00 0.00 71 1022.0
20260503044229 8 0.0 0.0 0.00 0.00 0.00 70 1022.0
20260503043035 8 8 0.0 0.0 0.00 0.00 0.00 69 1021.9
20260503041922 8 0.0 0.0 0.00 0.00 0.00 70 1021.9
20260503040629 8 271 0.0 1.6 0.00 0.00 0.00 69 1021.9
20260503035435 8 0.0 0.0 0.00 0.00 0.00 64 1021.7
20260503034252 9 15 1.6 3.2 0.00 0.00 0.00 64 1021.7
20260503033029 8 19 1.6 1.6 0.00 0.00 0.00 66 1021.6
20260503031837 8 0.0 0.0 0.00 0.00 0.00 67 1021.6
20260503030624 8 0.0 0.0 0.00 0.00 0.00 66 1021.7
20260503025431 8 0.0 0.0 0.00 0.00 0.00 63 1021.6
20260503024228 8 29 1.6 4.8 0.00 0.00 0.00 64 1021.5
20260503023036 8 0.0 0.0 0.00 0.00 0.00 64 1021.5
20260503021903 8 0.0 0.0 0.00 0.00 0.00 65 1021.4
20260503020630 8 0.0 0.0 0.00 0.00 0.00 65 1021.4
20260503015437 8 0.0 0.0 0.00 0.00 0.00 65 1021.6
20260503014224 8 0.0 0.0 0.00 0.00 0.00 63 1021.5
20260503013051 8 0.0 0.0 0.00 0.00 0.00 62 1021.4
20260503011839 8 0.0 0.0 0.00 0.00 0.00 62 1021.5
20260503010646 9 0.0 0.0 0.00 0.00 0.00 61 1021.5
20260503005453 9 0.0 0.0 0.00 0.00 0.00 62 1021.6
20260503004300 8 0.0 0.0 0.00 0.00 0.00 62 1021.5
20260503003027 8 0.0 0.0 0.00 0.00 0.00 63 1021.5
20260503001855 9 0.0 0.0 0.00 0.00 0.00 60 1021.5
20260503000622 9 0.0 0.0 0.00 0.00 0.00 59 1021.6